| time (UTC) | temp F | wind direction | speed knots | gust knots | rain 1hr in | rain 24hr in | rain mn in | humidity % | barometer mb |
| 20260507020052 | 65 | 321 | 2.6 | 5.2 | 0.00 | 0.10 | 0.10 | 91 | 1009.7 |
| 20260507014556 | 65 | 0 | 0.0 | 3.5 | 0.00 | 0.10 | 0.10 | 89 | 1009.6 |
| 20260507013059 | 65 | 186 | 0.0 | 2.6 | 0.00 | 0.10 | 0.10 | 89 | 1009.5 |
| 20260507011546 | 65 | 0 | 0.0 | 0.9 | 0.00 | 0.10 | 0.10 | 88 | 1009.4 |
| 20260507010050 | 65 | 197 | 0.0 | 1.7 | 0.00 | 0.10 | 0.10 | 88 | 1009.4 |
| 20260507004556 | 65 | 0 | 0.0 | 2.6 | 0.00 | 0.10 | 0.10 | 87 | 1009.5 |
| 20260507003051 | 66 | 0 | 0.0 | 2.6 | 0.00 | 0.10 | 0.10 | 87 | 1009.6 |
| 20260507001549 | 66 | 0 | 0.9 | 2.6 | 0.00 | 0.10 | 0.10 | 86 | 1009.2 |
| 20260507000053 | 66 | 0 | 0.0 | 2.6 | 0.00 | 0.10 | 0.10 | 86 | 1009.0 |
| 20260506234555 | 66 | 0 | 0.0 | 2.6 | 0.00 | 0.10 | 0.10 | 85 | 1008.8 |
| 20260506233052 | 67 | 0 | 0.9 | 2.6 | 0.00 | 0.10 | 0.10 | 85 | 1008.9 |
| 20260506231551 | 67 | 0 | 0.0 | 4.3 | 0.00 | 0.10 | 0.10 | 84 | 1009.1 |
| 20260506230055 | 67 | 258 | 0.9 | 5.2 | 0.00 | 0.10 | 0.10 | 83 | 1008.6 |
| 20260506224601 | 67 | 0 | 1.7 | 7.0 | 0.00 | 0.10 | 0.10 | 83 | 1008.9 |
| 20260506223049 | 67 | 225 | 3.5 | 10.4 | 0.00 | 0.10 | 0.10 | 83 | 1008.8 |
| 20260506221558 | 68 | 193 | 0.9 | 3.5 | 0.00 | 0.10 | 0.10 | 83 | 1008.8 |
| 20260506220052 | 68 | 177 | 3.5 | 8.7 | 0.00 | 0.10 | 0.10 | 82 | 1008.3 |
| 20260506214607 | 68 | 238 | 1.7 | 8.7 | 0.00 | 0.10 | 0.10 | 82 | 1008.6 |
| 20260506213054 | 68 | 201 | 2.6 | 7.8 | 0.00 | 0.10 | 0.10 | 84 | 1008.4 |
| 20260506211613 | 67 | 180 | 1.7 | 6.1 | 0.00 | 0.10 | 0.10 | 84 | 1008.4 |
| 20260506210051 | 68 | 0 | 0.9 | 11.3 | 0.00 | 0.10 | 0.10 | 82 | 1008.1 |
| 20260506204559 | 68 | 160 | 2.6 | 7.0 | 0.00 | 0.10 | 0.10 | 85 | 1008.1 |
| 20260506203052 | 66 | 171 | 0.9 | 5.2 | 0.00 | 0.10 | 0.10 | 86 | 1008.2 |
| 20260506201552 | 66 | 246 | 1.7 | 7.0 | 0.00 | 0.10 | 0.10 | 86 | 1008.1 |
| 20260506200051 | 66 | 176 | 2.6 | 11.3 | 0.00 | 0.10 | 0.10 | 86 | 1008.1 |
| 20260506194600 | 65 | 15 | 2.6 | 9.6 | 0.00 | 0.10 | 0.10 | 88 | 1008.4 |
| 20260506193057 | 64 | 246 | 0.0 | 8.7 | 0.00 | 0.10 | 0.10 | 89 | 1008.6 |
| 20260506191551 | 63 | 209 | 2.6 | 11.3 | 0.00 | 0.10 | 0.10 | 89 | 1008.7 |
| 20260506190052 | 63 | 208 | 0.9 | 6.1 | 0.00 | 0.10 | 0.10 | 90 | 1008.8 |
| 20260506184551 | 63 | 238 | 1.7 | 8.7 | 0.00 | 0.10 | 0.10 | 90 | 1009.0 |
| 20260506183059 | 63 | 217 | 1.7 | 7.0 | 0.00 | 0.10 | 0.10 | 91 | 1009.0 |
| 20260506181551 | 62 | 273 | 2.6 | 9.6 | 0.00 | 0.10 | 0.10 | 91 | 1009.2 |
| 20260506180055 | 62 | 169 | 0.9 | 7.0 | 0.00 | 0.10 | 0.10 | 92 | 1009.2 |
| 20260506174553 | 62 | 186 | 0.9 | 6.1 | 0.00 | 0.10 | 0.10 | 93 | 1009.3 |
| 20260506173051 | 61 | 171 | 0.9 | 6.1 | 0.00 | 0.10 | 0.10 | 93 | 1009.5 |
| 20260506171559 | 61 | 214 | 2.6 | 7.8 | 0.00 | 0.10 | 0.10 | 93 | 1009.5 |
| 20260506170052 | 61 | 257 | 1.7 | 6.1 | 0.02 | 0.10 | 0.10 | 93 | 1009.6 |
| 20260506164558 | 61 | 215 | 0.0 | 7.8 | 0.04 | 0.10 | 0.10 | 93 | 1009.6 |
| 20260506163103 | 61 | 169 | 2.6 | 7.0 | 0.05 | 0.10 | 0.10 | 93 | 1009.8 |
| 20260506161545 | 61 | 184 | 2.6 | 7.8 | 0.06 | 0.10 | 0.10 | 94 | 1010.0 |
| 20260506160053 | 61 | 106 | 1.7 | 6.1 | 0.05 | 0.08 | 0.08 | 93 | 1010.0 |
| 20260506154610 | 61 | 213 | 1.7 | 4.3 | 0.05 | 0.06 | 0.06 | 91 | 1010.6 |
| 20260506153048 | 61 | 0 | 0.0 | 3.5 | 0.05 | 0.05 | 0.05 | 91 | 1010.8 |
| 20260506151548 | 61 | 90 | 0.9 | 10.4 | 0.04 | 0.04 | 0.04 | 89 | 1010.8 |
| 20260506150056 | 62 | 246 | 0.9 | 7.8 | 0.03 | 0.03 | 0.03 | 87 | 1010.3 |
| 20260506144602 | 63 | 197 | 2.6 | 9.6 | 0.01 | 0.01 | 0.01 | 85 | 1010.6 |
| 20260506143051 | 63 | 252 | 0.9 | 6.1 | 0.00 | 0.00 | 0.00 | 83 | 1010.7 |
| 20260506141550 | 64 | 132 | 1.7 | 7.8 | 0.00 | 0.00 | 0.00 | 81 | 1010.4 |
| 20260506140058 | 65 | 253 | 2.6 | 10.4 | 0.00 | 0.00 | 0.00 | 78 | 1010.6 |
| 20260506134553 | 66 | 182 | 2.6 | 11.3 | 0.00 | 0.00 | 0.00 | 76 | 1010.4 |
| 20260506133057 | 65 | 223 | 1.7 | 8.7 | 0.00 | 0.00 | 0.00 | 78 | 1010.2 |
| 20260506131552 | 65 | 217 | 2.6 | 11.3 | 0.00 | 0.00 | 0.00 | 78 | 1010.3 |
| 20260506130053 | 65 | 158 | 2.6 | 11.3 | 0.00 | 0.00 | 0.00 | 77 | 1010.4 |
| 20260506124554 | 65 | 252 | 0.9 | 10.4 | 0.00 | 0.00 | 0.00 | 79 | 1010.4 |
| 20260506123054 | 65 | 100 | 2.6 | 10.4 | 0.00 | 0.00 | 0.00 | 78 | 1010.8 |
| 20260506121553 | 65 | 201 | 3.5 | 11.3 | 0.00 | 0.00 | 0.00 | 78 | 1010.4 |
| 20260506120052 | 65 | 204 | 1.7 | 8.7 | 0.00 | 0.00 | 0.00 | 78 | 1010.4 |
| 20260506114558 | 65 | 130 | 4.3 | 12.2 | 0.00 | 0.00 | 0.00 | 79 | 1010.2 |
| 20260506113053 | 64 | 218 | 0.9 | 7.0 | 0.00 | 0.00 | 0.00 | 79 | 1010.1 |
| 20260506111551 | 64 | 223 | 0.9 | 9.6 | 0.00 | 0.00 | 0.00 | 79 | 1010.1 |
| 20260506110050 | 64 | 173 | 1.7 | 10.4 | 0.00 | 0.00 | 0.00 | 80 | 1010.1 |
| 20260506104556 | 64 | 200 | 2.6 | 11.3 | 0.00 | 0.00 | 0.00 | 79 | 1010.0 |
| 20260506103057 | 64 | 159 | 1.7 | 8.7 | 0.00 | 0.00 | 0.00 | 80 | 1010.1 |
| 20260506101552 | 64 | 152 | 3.5 | 8.7 | 0.00 | 0.00 | 0.00 | 80 | 1009.9 |
| 20260506100051 | 64 | 214 | 0.9 | 7.0 | 0.00 | 0.00 | 0.00 | 80 | 1009.9 |
| 20260506094547 | 64 | 198 | 3.5 | 8.7 | 0.00 | 0.00 | 0.00 | 79 | 1009.9 |
| 20260506093048 | 65 | 123 | 1.7 | 6.1 | 0.00 | 0.00 | 0.00 | 78 | 1009.9 |
| 20260506091554 | 65 | 37 | 0.9 | 8.7 | 0.00 | 0.00 | 0.00 | 77 | 1010.1 |
| 20260506090050 | 66 | 0 | 1.7 | 7.8 | 0.00 | 0.00 | 0.00 | 76 | 1009.9 |
| 20260506084554 | 66 | 245 | 2.6 | 13.9 | 0.00 | 0.00 | 0.00 | 76 | 1010.0 |
| 20260506083058 | 66 | 195 | 2.6 | 7.0 | 0.00 | 0.00 | 0.00 | 76 | 1009.9 |
| 20260506081552 | 66 | 196 | 0.9 | 10.4 | 0.00 | 0.00 | 0.00 | 76 | 1010.0 |
| 20260506073054 | 66 | 200 | 0.0 | 7.8 | 0.00 | 0.00 | 0.00 | 76 | 1010.2 |
| 20260506071551 | 66 | 0 | 0.0 | 7.0 | 0.00 | 0.00 | 0.00 | 76 | 1010.3 |
| 20260506061555 | 67 | 225 | 1.7 | 4.3 | 0.00 | 0.00 | 0.00 | 74 | 1010.8 |
| 20260506044557 | 68 | 191 | 0.0 | 7.0 | 0.00 | 0.00 | 0.00 | 66 | 1011.3 |
| 20260506043044 | 68 | 0 | 0.9 | 7.0 | 0.00 | 0.00 | 0.00 | 65 | 1011.3 |
| 20260506041553 | 68 | 0 | 0.0 | 4.3 | 0.00 | 0.00 | 0.00 | 64 | 1011.3 |
| 20260506040050 | 69 | 0 | 0.9 | 4.3 | 0.00 | 0.00 | 0.00 | 64 | 1011.2 |
| 20260506034547 | 69 | 0 | 0.9 | 4.3 | 0.00 | 0.00 | 0.00 | 63 | 1011.2 |
| 20260506033052 | 69 | 0 | 0.0 | 2.6 | 0.00 | 0.00 | 0.00 | 63 | 1011.1 |
| 20260506031551 | 69 | 184 | 0.0 | 3.5 | 0.00 | 0.00 | 0.00 | 62 | 1011.0 |
| 20260506030059 | 69 | 184 | 0.9 | 3.5 | 0.00 | 0.00 | 0.00 | 62 | 1011.1 |
| 20260506024552 | 70 | 204 | 0.9 | 3.5 | 0.00 | 0.00 | 0.00 | 62 | 1011.2 |
| 20260506023058 | 70 | 0 | 0.0 | 3.5 | 0.00 | 0.00 | 0.00 | 60 | 1011.4 |
| 20260506021555 | 70 | 0 | 0.0 | 4.3 | 0.00 | 0.00 | 0.00 | 60 | 1011.3 |